EHI
0 0 0 0 0 0 0 0 0 0 0 0 0 1 3 7 9 8 8 6 4 3 2 3 6 6 3 1 0 1 3 4 4 2 1 0 1 2 2 2 2 3 4 4
0 0 0 0 0 0 0 0 0 0 0 0 0 0 2 5 7 9 9 8 5 3 1 2 5 7 5 3 2 3 3 4 3 2 1 0 1 1 2 3 3 4 4 6
0 0 0 0 0 0 0 0 0 0 0 0 1 0 0 2 5 9 10 9 7 4 2 2 5 8 10 8 6 5 4 3 3 3 2 2 3 3 3 3 4 4 6 7
0 0 0 0 0 0 0 0 0 0 0 0 0 0 0 1 4 7 9 10 8 6 4 5 7 9 12 13 11 8 6 5 4 4 4 5 5 5 5 4 4 5 6 7
0 0 0 0 0 0 0 0 0 0 0 0 0 0 0 2 3 4 6 8 9 9 8 7 9 10 12 14 13 11 9 8 7 7 8 7 6 6 6 6 6 6 5 5
0 0 0 0 0 0 0 0 0 0 0 0 0 0 0 2 3 3 3 4 8 12 12 10 10 11 12 14 15 14 13 12 11 12 12 10 8 7 7 7 8 6 3 2
0 0 0 0 0 0 0 0 0 0 0 0 0 0 1 2 3 2 1 3 7 12 14 13 12 13 14 16 18 18 17 15 14 14 13 12 9 7 6 7 7 5 2 1
0 0 0 0 0 0 0 0 0 0 0 0 1 1 1 1 1 1 1 4 8 13 14 14 15 16 18 20 22 21 19 17 15 14 12 11 8 6 5 6 5 4 3 2
0 0 0 0 0 0 0 0 0 0 0 0 1 2 2 1 0 0 2 5 9 13 13 14 16 19 21 24 25 24 21 19 17 15 12 10 7 6 5 4 4 5 4 2
0 0 0 0 0 0 0 0 0 0 0 0 0 1 1 2 1 1 2 5 9 11 12 13 16 20 25 29 28 25 23 22 20 17 15 11 9 8 6 5 5 7 6 3
0 0 0 0 0 0 0 0 0 0 0 0 0 0 1 2 3 3 4 5 8 10 10 11 16 22 30 34 32 28 25 23 20 17 16 15 15 13 11 9 10 11 8 5
0 0 0 0 0 0 0 0 0 0 0 0 0 0 1 3 5 5 5 6 7 10 11 12 17 25 33 38 36 32 29 25 22 19 17 18 19 19 16 15 15 14 10 7
0 0 0 0 0 0 0 0 0 0 0 0 0 0 1 4 6 7 8 10 12 14 15 18 22 27 33 36 35 32 31 29 26 23 21 19 18 19 19 17 16 14 11 9
0 0 0 0 0 0 0 0 0 0 0 0 0 1 2 4 6 9 13 16 18 20 21 24 28 29 31 33 31 27 28 28 26 25 23 19 16 16 16 15 14 12 10 9
0 0 0 0 0 0 0 0 0 0 0 0 0 1 2 4 6 11 17 21 22 23 24 27 30 29 29 31 29 26 26 24 23 25 25 21 17 15 13 12 12 11 10 9
0 0 0 0 0 0 0 0 0 0 1 1 0 1 2 4 7 13 19 22 23 22 23 25 26 26 27 30 30 29 28 25 23 25 26 24 22 19 15 14 13 12 11 10
0 0 0 0 0 0 0 0 0 2 4 4 3 4 5 6 7 13 19 22 21 19 19 21 22 22 23 25 27 28 28 27 25 25 25 25 26 24 22 20 18 15 13 12
0 0 0 0 0 0 0 0 2 5 8 9 9 9 9 8 9 11 16 19 18 16 16 18 20 20 20 21 23 26 27 25 24 23 22 24 27 28 27 26 23 18 15 14
0 0 0 0 0 0 0 1 3 7 11 12 12 11 10 10 10 11 12 14 15 14 16 18 19 19 20 20 21 25 26 24 23 21 20 21 25 27 28 27 24 21 18 16
0 0 0 0 0 0 1 2 4 8 9 9 9 8 7 8 9 9 11 13 15 16 18 19 19 19 18 17 20 24 26 25 23 21 20 21 22 25 26 24 21 21 19 17
0 0 0 0 0 1 2 3 4 5 5 6 6 6 6 7 8 10 12 14 15 15 16 18 19 18 15 13 17 22 25 25 24 24 23 23 23 24 24 23 21 21 19 18
0 0 0 0 0 1 2 3 4 4 5 5 5 6 8 9 10 12 12 11 11 11 11 13 16 16 14 13 15 20 23 24 26 28 27 26 25 24 22 22 23 23 21 18
1 0 1 1 1 1 3 3 4 5 7 8 9 10 10 10 10 9 7 6 7 8 8 10 14 16 15 15 16 18 20 23 28 30 29 26 25 23 22 21 23 24 23 20
2 2 2 2 3 3 4 5 6 8 10 12 13 12 10 8 7 4 3 2 5 8 9 12 16 17 16 15 15 16 18 22 27 30 27 25 23 21 20 20 21 23 23 21
2 2 2 2 3 4 5 7 9 11 13 14 13 11 8 7 5 4 3 3 5 9 12 15 18 16 14 13 12 14 16 20 23 25 25 23 22 21 19 19 19 18 17 17
1 1 1 1 2 4 5 8 10 13 15 14 11 9 7 6 6 5 5 5 7 10 13 17 17 15 12 10 10 11 15 17 19 20 21 22 22 22 20 17 16 15 13 12
Wind_Speed
2 2 4 8 8 7 4 3 3 4 3 4 5 6 10 9 9 9 8 9 9 9 7 8 8 8 7 6 6 5 4 3 2 2 1 2 1 1 1 1 3 3 3 3
3 5 10 7 5 4 3 3 3 2 2 4 4 3 5 9 11 11 12 11 10 8 7 8 7 7 8 7 6 5 4 4 3 2 2 2 2 1 1 1 2 2 3 3
7 9 6 5 4 3 3 5 5 4 1 4 5 2 2 4 5 7 10 11 11 12 11 10 8 8 8 8 7 6 5 4 3 3 2 2 2 2 2 2 1 1 3 3
7 8 5 5 6 4 4 6 6 4 3 1 4 1 5 4 4 7 9 10 11 11 10 10 9 9 9 8 7 6 5 4 3 3 3 4 3 2 1 1 1 2 2 3
7 5 4 5 6 4 5 3 3 3 3 2 1 3 6 2 4 7 9 11 12 12 12 11 11 11 9 8 7 6 5 4 4 4 4 4 3 2 2 2 3 2 2 2
8 6 5 6 4 3 2 4 4 5 5 1 4 4 5 5 10 8 9 10 12 12 12 11 10 9 8 8 7 6 6 4 4 4 4 5 5 4 3 3 2 1 1 1
6 7 4 2 1 3 4 6 4 5 4 4 2 3 7 8 8 10 11 11 11 12 12 11 11 10 9 9 8 7 7 5 4 5 5 5 5 5 5 4 3 3 2 2
3 6 5 3 5 5 3 9 8 5 4 4 1 2 6 5 5 7 8 9 11 11 11 12 13 12 11 11 9 8 7 6 5 5 4 4 4 4 3 3 3 3 3 3
5 6 5 4 3 7 3 3 8 7 2 1 2 2 4 2 3 4 6 7 9 11 12 12 13 12 11 11 10 10 9 7 6 6 5 4 4 4 4 3 3 3 2 3
6 3 5 3 2 1 6 6 5 5 4 1 1 2 4 4 3 3 4 7 8 9 11 11 12 12 12 11 10 9 9 8 7 6 5 5 4 4 4 4 4 3 3 3
4 3 5 2 2 4 1 2 5 4 6 7 2 6 6 9 7 6 5 7 9 10 11 11 11 10 10 9 8 8 7 7 6 6 5 4 4 4 4 4 4 4 3 4
3 5 2 6 6 5 5 5 7 5 2 4 4 6 4 7 6 5 5 5 7 9 9 10 10 9 9 9 8 8 8 7 6 6 5 5 4 4 4 4 4 4 4 4
3 6 2 7 8 5 0 2 5 6 5 4 5 5 2 3 2 3 5 7 7 8 8 8 8 9 10 9 8 8 8 7 6 6 5 5 4 4 5 5 4 4 4 3
6 5 7 7 7 4 2 2 2 6 4 4 6 5 3 3 3 2 4 6 8 7 8 8 7 7 8 9 9 8 7 6 6 6 6 6 5 5 5 5 4 4 4 4
6 3 2 4 4 2 2 3 2 4 7 8 8 8 9 8 7 6 6 7 8 8 7 8 7 6 6 7 7 7 7 6 6 6 6 6 5 5 4 4 4 4 4 5
5 3 2 3 3 2 3 3 2 2 4 6 6 5 6 6 6 6 6 8 8 8 8 7 6 6 6 7 7 7 6 6 6 6 6 6 5 5 4 4 4 4 4 4
2 4 3 2 5 3 4 4 2 2 2 6 6 6 5 5 7 8 8 9 8 7 6 7 7 7 6 7 7 7 7 6 6 6 5 5 5 5 5 5 4 5 4 4
6 4 3 1 4 2 8 3 6 7 3 3 5 5 8 7 6 6 7 9 8 6 6 5 5 5 5 5 5 6 6 6 5 5 4 4 4 5 5 4 5 5 4 4
7 7 4 3 1 4 6 4 1 5 2 1 6 6 8 7 7 3 2 7 8 6 5 4 4 4 4 4 5 5 5 5 5 5 5 5 5 4 4 4 5 4 4 4
5 7 6 4 3 5 6 5 0 7 1 2 4 6 6 6 4 2 2 4 5 5 5 4 3 3 4 3 4 5 5 5 5 6 6 5 5 5 5 5 4 3 4 5
3 3 4 4 4 6 5 5 3 4 6 2 4 6 5 5 5 4 4 5 5 5 5 4 4 3 3 4 5 5 5 6 6 5 4 4 4 4 5 4 3 3 3 3
5 4 4 5 4 8 4 2 4 5 3 3 4 5 6 5 5 4 4 5 5 5 4 4 4 2 2 4 5 4 4 4 3 3 3 3 3 4 3 3 3 3 3 3
3 6 6 7 7 6 2 4 4 5 5 3 5 5 7 6 5 4 3 3 3 4 3 2 3 3 1 2 4 5 4 3 3 3 3 3 3 3 3 4 4 3 3 3
3 0 3 2 1 1 1 3 4 5 5 5 6 7 7 6 5 4 4 3 2 1 2 2 3 2 1 2 3 4 3 3 4 4 3 3 3 3 3 3 3 4 4 5
3 1 2 1 1 2 2 1 2 4 5 6 5 5 6 6 5 4 3 3 2 2 1 2 3 2 2 2 2 2 2 3 4 4 3 3 3 4 3 3 4 5 5 6
3 3 4 5 6 5 5 4 3 5 5 5 5 4 4 5 5 3 2 2 2 2 1 1 1 2 2 1 2 2 2 3 4 3 3 3 3 3 3 3 3 4 4 5
Wind_Direction
276 99 230 229 207 203 198 194 214 229 175 125 156 163 170 174 170 167 168 169 168 170 167 157 152 150 143 139 137 138 134 142 130 117 114 113 120 131 124 134 138 143 135 131
3 257 239 241 239 204 189 173 215 242 178 136 145 170 178 176 180 176 172 175 173 165 156 156 154 153 150 151 150 147 148 155 151 148 149 144 144 143 135 121 116 128 125 127
213 242 245 247 260 223 237 187 201 198 152 85 99 20 219 198 179 177 176 175 173 171 167 164 161 158 154 156 160 159 159 154 150 139 116 101 75 63 62 82 107 124 129 126
242 247 251 249 244 203 245 218 193 176 116 193 125 188 260 213 198 186 182 175 176 174 167 166 164 163 166 168 164 157 157 151 153 145 136 134 131 138 161 143 130 119 125 131
256 250 242 237 236 210 220 205 170 154 125 97 96 141 267 186 201 202 186 180 177 174 170 171 170 169 168 165 162 158 152 152 154 150 147 139 135 141 131 112 107 109 121 134
253 257 225 226 240 203 166 72 43 50 69 38 227 157 254 216 203 192 184 182 178 172 171 172 169 161 162 164 162 157 151 156 155 150 147 144 146 145 133 131 135 134 130 129
292 290 261 220 316 342 82 88 41 6 14 255 235 144 245 231 199 182 181 181 178 172 172 171 168 168 169 169 168 163 160 165 164 156 157 159 157 155 162 167 164 160 154 157
231 282 261 215 181 187 186 137 152 188 216 268 337 207 260 234 191 175 175 173 173 171 174 177 177 175 175 172 168 164 165 169 168 166 170 171 166 167 175 178 168 171 175 180
192 252 266 225 190 158 172 171 168 145 163 107 287 285 314 52 99 138 156 160 173 177 178 179 177 175 175 173 172 171 168 168 170 171 172 174 178 175 174 170 165 172 178 171
173 238 275 261 60 283 172 159 103 117 139 144 278 253 224 224 204 170 165 173 179 181 176 177 176 175 177 177 173 169 168 170 173 174 177 177 181 177 170 160 168 176 178 173
152 170 294 338 182 216 177 114 117 122 147 146 191 264 226 200 202 182 185 180 166 167 173 175 175 172 170 165 161 163 169 169 173 177 176 168 171 174 170 171 179 182 178 171
150 133 242 265 255 207 176 178 145 142 189 148 156 259 263 185 190 178 178 173 164 160 159 161 158 152 154 159 164 169 173 175 178 176 169 169 166 164 169 178 184 179 177 175
123 108 61 340 337 341 333 175 143 132 122 140 155 251 302 134 131 165 160 151 153 151 145 145 148 155 159 161 164 172 176 179 180 170 165 170 175 176 182 187 185 179 178 181
108 112 154 193 223 249 289 291 138 120 136 171 193 202 247 170 157 155 147 147 139 140 142 145 150 160 164 165 167 167 170 173 172 168 167 174 185 189 192 188 182 182 183 183
88 109 189 220 235 231 247 259 228 162 171 171 196 187 207 194 178 166 152 142 134 132 137 148 155 159 159 158 161 164 165 167 168 168 172 185 188 190 188 187 187 187 190 194
75 96 35 332 318 340 302 280 244 183 158 151 153 206 212 175 145 131 137 138 136 142 147 148 150 154 160 163 165 164 167 171 169 169 180 185 183 185 188 192 191 189 197 197
84 102 78 302 324 13 288 252 168 132 153 150 172 203 163 143 149 156 152 143 144 146 148 154 159 165 172 176 171 170 173 169 169 176 182 183 184 187 196 198 194 198 202 199
133 114 121 89 38 247 256 272 128 110 75 115 140 148 150 154 149 147 147 143 144 145 145 155 163 163 169 171 167 162 155 156 164 172 182 187 187 195 197 198 206 207 202 201
143 134 119 116 154 275 296 316 108 117 44 40 121 126 136 123 85 58 129 142 149 153 152 155 158 153 155 160 161 151 154 160 166 179 185 188 189 190 194 207 217 216 206 209
95 114 121 130 159 222 249 286 277 98 53 305 125 131 142 121 120 215 173 131 126 123 126 126 124 128 139 162 152 151 166 170 187 197 199 194 190 193 202 213 217 214 206 212
78 87 135 158 198 251 258 288 48 122 207 223 138 136 135 146 172 181 150 132 125 117 114 118 117 132 173 171 148 162 182 195 204 200 193 194 198 204 211 210 212 209 203 201
164 155 174 155 185 243 275 54 131 188 183 133 121 123 121 122 116 119 122 124 121 112 107 114 121 132 163 159 152 170 205 213 193 179 187 200 208 216 217 206 217 214 198 198
175 183 178 180 206 231 217 147 156 140 125 122 122 120 119 119 123 125 125 120 115 123 131 134 143 149 163 167 163 183 216 202 172 170 194 214 221 221 211 206 215 214 202 199
304 45 114 113 257 259 85 99 105 117 124 126 124 123 122 125 134 129 127 126 118 124 156 146 135 149 195 206 196 205 211 187 172 182 205 216 219 232 232 219 212 211 210 208
252 27 82 148 209 54 8 115 120 103 100 101 109 117 130 136 137 138 144 157 164 162 174 162 159 179 222 233 234 220 202 182 187 195 207 220 225 228 232 231 227 226 226 216
224 168 161 214 214 182 213 218 147 122 126 125 118 106 113 132 145 142 147 162 155 149 131 122 173 186 220 220 236 240 211 186 186 199 212 221 228 229 229 234 269 268 253 248